TimePST,TemperatureF,Dew PointF,Humidity,Sea Level PressureIn,VisibilityMPH,Wind Direction,Wind SpeedMPH,Gust SpeedMPH,PrecipitationIn,Events,Conditions,WindDirDegrees,DateUTC
12:52 AM,57.0,52.0,83,30.17,9.0,Calm,Calm,-,N/A,,Partly Cloudy,0,2012-11-19 08:52:00
1:52 AM,57.9,53.1,84,30.17,9.0,Calm,Calm,-,N/A,,Scattered Clouds,0,2012-11-19 09:52:00
2:52 AM,57.0,52.0,83,30.17,9.0,NNW,3.5,-,N/A,,Partly Cloudy,340,2012-11-19 10:52:00
3:52 AM,55.9,51.1,84,30.17,9.0,Calm,Calm,-,N/A,,Partly Cloudy,0,2012-11-19 11:52:00
4:52 AM,55.0,51.1,86,30.17,9.0,Calm,Calm,-,N/A,,Partly Cloudy,0,2012-11-19 12:52:00
5:52 AM,54.0,48.9,83,30.19,9.0,Calm,Calm,-,N/A,,Clear,0,2012-11-19 13:52:00
6:52 AM,55.0,50.0,83,30.22,10.0,Calm,Calm,-,N/A,,Scattered Clouds,0,2012-11-19 14:52:00
7:52 AM,61.0,53.1,75,30.23,10.0,Calm,Calm,-,N/A,,Scattered Clouds,0,2012-11-19 15:52:00
8:52 AM,64.0,53.1,67,30.24,10.0,North,6.9,-,N/A,,Scattered Clouds,360,2012-11-19 16:52:00
9:52 AM,66.9,54.0,63,30.23,9.0,NNW,8.1,-,N/A,,Partly Cloudy,340,2012-11-19 17:52:00
10:52 AM,70.0,52.0,53,30.21,10.0,NNW,10.4,-,N/A,,Partly Cloudy,330,2012-11-19 18:52:00
11:52 AM,72.0,51.1,48,30.18,10.0,NW,13.8,-,N/A,,Partly Cloudy,320,2012-11-19 19:52:00
12:52 PM,70.0,53.1,55,30.17,10.0,NW,13.8,-,N/A,,Partly Cloudy,320,2012-11-19 20:52:00
1:52 PM,69.1,54.0,58,30.16,10.0,NW,15.0,-,N/A,,Partly Cloudy,310,2012-11-19 21:52:00
2:52 PM,68.0,55.0,63,30.15,10.0,NW,15.0,-,N/A,,Partly Cloudy,320,2012-11-19 22:52:00
3:52 PM,66.0,55.9,70,30.15,10.0,NW,10.4,-,N/A,,Scattered Clouds,320,2012-11-19 23:52:00
4:52 PM,64.0,55.9,75,30.16,10.0,NNW,10.4,-,N/A,,Scattered Clouds,330,2012-11-20 00:52:00
5:52 PM,64.0,55.9,75,30.18,10.0,NNW,6.9,-,N/A,,Scattered Clouds,330,2012-11-20 01:52:00
6:00 PM,-9999,-9999,N/A,-9999,-9999.0,North,-9999.0,-,N/A,,Unknown,0,2012-11-20 02:00:00
6:52 PM,63.0,55.9,78,30.18,10.0,NNW,6.9,-,N/A,,Scattered Clouds,330,2012-11-20 02:52:00
7:52 PM,63.0,57.0,81,30.19,10.0,NNW,5.8,-,N/A,,Scattered Clouds,340,2012-11-20 03:52:00
8:30 PM,64.4,55.4,73,30.18,10.0,North,8.1,-,N/A,,Mostly Cloudy,350,2012-11-20 04:30:00
8:52 PM,64.0,55.9,75,30.18,10.0,North,8.1,-,N/A,,Mostly Cloudy,350,2012-11-20 04:52:00
9:52 PM,62.1,55.0,78,30.18,10.0,North,5.8,-,N/A,,Scattered Clouds,350,2012-11-20 05:52:00
10:52 PM,60.1,54.0,80,30.17,9.0,Calm,Calm,-,N/A,,Scattered Clouds,0,2012-11-20 06:52:00
11:14 PM,60.8,55.4,82,30.17,9.0,NE,4.6,-,N/A,,Mostly Cloudy,40,2012-11-20 07:14:00
11:52 PM,62.1,55.0,78,30.16,9.0,North,4.6,-,N/A,,Scattered Clouds,10,2012-11-20 07:52:00